{"data":{"norad_id":67584,"intl_designator":"2026-016Z","name":"STARLINK-36419","alt_names":[],"object_type":"PAYLOAD","status":"ACTIVE","operator":null,"country":"US","launch_date":"2026-01-25","launch_site_code":"AFWTR","launch_vehicle":null,"mission":null,"orbit_class":"UNKNOWN","rcs_meters":null,"size_class":null,"mass_kg":null,"dimensions":null,"purposes":["comms"],"wikipedia_slug":null,"has_3d_model":false,"image_url":null,"decayed_at":null,"tle_current":{"epoch":"2026-05-25T03:07:11.147232Z","epoch_age_seconds":57743,"freshness":"FRESH","line1":"1 67584U 26016Z   26145.12999013  .00025709  00000+0  79573-3 0  9993","line2":"2 67584  97.2851 205.5369 0000518  73.1982 286.9318 15.33455027 18582","mean_motion":15.33455027,"eccentricity":5.18e-5,"inclination_deg":97.2851,"raan_deg":205.5369,"arg_perigee_deg":73.1982,"mean_anomaly_deg":286.9318,"bstar":0.00079573,"rev_number":1858,"period_min":93.905590620233,"perigee_km":465.15884025561,"apogee_km":465.86784243097,"semimajor_km":6843.6503413433,"source":"CELESTRAK","updated_at":"2026-05-25T13:38:21.618337Z"}}}